Other Surface Observations
Issued by NWS Tucson, AZ

Home | Current Version | Previous Version | Text Only | Print | Product List | Glossary On
Versions: 1 2 3 4 5 6 7 8 9 10 11 12 13 14 15 16 17 18 19 20 21 22 23 24 25 26 27 28 29 30 31 32 33 34 35 36 37 38 39 40 41 42 43 44 45 46 47 48 49 50
000
SXUS55 KTWC 270515
OSOTWC

WEATHER ROUNDUP FOR SOUTHEAST ARIZONA
NATIONAL WEATHER SERVICE TUCSON AZ
1015 PM MST MON SEP 26 2016

AZZ504>506-514-270615-
LOCATION       SKY/WX    TMP DP  RH WIND       PRES   REMARKS
TUCSON         CLOUDY    70  48  45 SE16      30.09S
DAVIS-MONTHAN  CLEAR     67  50  54 SE14      30.09R
CHILDRENS PARK N/A      N/A N/A  33 SE18              PIMA CO DEQ
ALVERNON/22ND  N/A       72 N/A N/A E7                PIMA CO DEQ
CHERRY/GLENN   N/A       73 N/A N/A E12               PIMA CO DEQ
TANGERINE      N/A       69 N/A N/A N/A               PIMA CO DEQ
CONTL RANCH    N/A       75  42  31 SE11              PIMA CO DEQ
GRANT/1ST      N/A       73  43  34 E12               PIMA CO DEQ
CRAYCROFT/22ND N/A       72  45  38 E7                PIMA CO DEQ
GOLFLINKS/KOLB N/A       71  45  39 N/A               PIMA CO DEQ
AJO/12TH       N/A       72  46  40 SE14              PIMA CO DEQ
FAIRGROUNDS    N/A       67 N/A N/A E19               PIMA CO DEQ
SAGUARO        N/A       72  46  39 E16G34            *SABINO CYN
SAN CARLOS     N/A       64  50  61 E3                *SAN CARLOS
GREEN VALLEY   N/A       66  48  53 E14               PIMA CO DEQ
HORSE CAMP CYN N/A       60  45  58 E17G26            *ARAVAIPA CYN
RINCON MTNS    NOT AVBL
$$

AZZ509>511-270615-
LOCATION       SKY/WX    TMP DP  RH WIND       PRES   REMARKS
SAFFORD        MOCLDY    62  52  69 SE5       30.22S
STRAY HORSE    N/A       51  43  75 E5G10             *
TRAIL CABIN    N/A       50  45  84 E5G10             *N OF GRANVILLE
BLACK HILLS    NOT AVBL
DRY LAKE       N/A       45  41  86 E6G11             *NATANES MTNS
NOON CREEK     NOT AVBL
COLUMBINE      N/A       42  39  89 E4G12             *PINALENO MTNS
GUTHRIE        N/A       46  44  93 SE10G18           *SW OF GUTHRIE
$$

AZZ502-503-513-270615-
LOCATION       SKY/WX    TMP DP  RH WIND       PRES   REMARKS
NOGALES        CLOUDY    62  49  62 NE8       30.14R
SELLS          N/A       70  50  50 E3G14             *
SASABE         N/A       66  49  55 E3G15             *ALTAR VLY
HOPKINS        N/A       49  45  85 E21G56            *SANTA RITA MTNS
CARR CYN       N/A       55  46  72 S6G14             *W OF HEREFORD
$$

AZZ507-508-512-270615-
LOCATION       SKY/WX    TMP DP  RH WIND       PRES   REMARKS
SIERRA VISTA   CLOUDY    56  49  77 SE12      30.21F
DOUGLAS        PTCLDY    58  46  64 E12G23    30.20F
EMPIRE MTNS    NOT AVBL
MULESHOE RANCH N/A       60  43  53 E10G21            *PRESERVE
HEADQUARTERS   NOT AVBL
$$

.............................NOTES.............................
THIS IS AN AUTOMATED COLLECTIVE WITH MINIMAL QUALITY CONTROL.
PIMA CO DEQ SITES HAVE NONSTANDARD WIND SENSOR HEIGHTS.
PIMA CO DEQ SITES DO NOT REPORT WIND GUSTS.
* INDICATES WIND SENSORS LOCATED AT 20 FEET INSTEAD OF 33 FEET.
..............................KEY..............................
SKY/WX - SKY CONDITION/WEATHER
TMP    - TEMPERATURE IN FAHRENHEIT
DP     - DEWPOINT IN FAHRENHEIT
RH     - RELATIVE HUMIDITY IN PERCENT
WIND   - DIRECTION AND SPEED IN MILES PER HOUR (MPH)
VRB    - VARIABLE WIND DIRECTION
PRES   - MEAN SEA LEVEL PRESSURE IN INCHES OF MERCURY
         F - FALLING PRESSURE   R - RISING PRESSURE
         S - STEADY PRESSURE
VSB    - VISIBILITY IN MILES
HX     - HEAT INDEX IN FAHRENHEIT
WCI    - WIND CHILL INDEX IN FAHRENHEIT
N/A    - NOT AVAILABLE
AFB    - AIR FORCE BASE
         DAVIS-MONTHAN IS DAVIS-MONTHAN AIR FORCE BASE
CYN    - CANYON
MTNS   - MOUNTAINS
NCA    - NATIONAL CONSERVATION AREA
NR     - NEAR
VLY    - VALLEY
CONTL  - CONTINENTAL
PIMA CO DEQ - PIMA COUNTY DEPT OF ENVIRONMENTAL QUALITY



USA.gov is the U.S. government's official web portal to all federal, state and local government web resources and services.